Probability
0 0 1 3 5 4 1 0 0 0 0 0 0 2 4 6 6 8 11 16 20 21 22 27 31 29 22 16 11 8 7 6 6 6 6 6 6 5 4 5 5 3 2 1 0 0 0 0 0
0 0 2 4 5 3 1 0 0 0 0 0 1 3 5 9 12 15 18 21 24 27 28 32 36 35 28 20 14 11 8 8 7 7 7 7 6 5 4 4 3 2 1 0 0 0 0 0 0
0 1 4 5 4 1 0 0 0 0 0 0 2 3 6 11 17 22 23 24 29 33 35 38 40 40 33 25 19 14 12 10 9 8 8 7 6 6 5 3 2 1 0 0 0 0 0 0 0
0 1 4 5 3 1 0 0 0 0 0 0 2 5 8 11 17 23 24 24 28 33 35 37 39 39 34 26 20 17 14 12 10 9 7 6 5 6 6 4 2 1 0 0 1 1 0 0 0
1 2 3 3 1 0 0 0 0 0 0 1 3 8 11 13 17 21 23 24 27 29 31 32 34 35 33 26 19 16 14 12 10 8 6 5 4 6 6 5 4 1 0 0 1 1 1 1 0
1 2 1 1 0 0 0 0 0 0 0 1 4 10 12 13 17 20 22 25 26 27 28 30 30 31 31 27 21 16 13 11 9 8 6 5 5 6 6 6 5 3 1 1 0 1 2 2 1
1 1 0 0 0 0 0 0 0 0 0 1 4 8 11 12 15 17 20 22 23 23 25 26 26 26 26 24 20 15 11 9 9 8 7 6 6 6 6 6 6 5 4 2 1 0 1 2 2
0 0 0 0 0 0 0 0 0 0 1 2 4 7 9 10 12 14 16 16 17 18 19 19 19 19 18 17 16 13 10 9 9 9 7 6 6 6 6 6 6 6 5 4 2 1 0 1 2
0 0 0 0 0 0 0 0 0 0 1 4 5 6 7 8 10 12 12 12 12 12 12 13 13 13 12 13 13 12 10 9 9 8 7 6 6 6 6 6 6 6 6 4 2 1 0 0 1
0 0 0 0 0 0 0 0 0 1 2 4 5 4 5 6 8 10 11 10 9 8 8 9 10 10 10 11 12 11 10 8 7 7 6 6 6 6 5 4 5 6 5 3 1 0 1 1 1
0 0 0 0 0 0 0 0 0 1 2 2 3 3 3 4 6 7 8 8 7 6 6 7 7 8 9 10 10 10 9 7 6 6 6 6 6 6 4 3 4 4 4 3 1 0 1 1 1
0 0 0 0 0 0 0 0 0 0 0 1 2 3 3 3 4 4 5 6 6 6 6 6 6 7 8 8 8 9 8 7 6 6 6 6 6 6 4 3 3 3 3 2 1 0 1 1 0
0 0 0 1 1 1 2 1 0 0 0 1 2 3 3 3 3 3 3 4 5 6 6 6 6 7 7 7 7 8 7 6 6 6 6 6 6 6 5 3 3 3 3 2 1 0 0 0 0
0 0 0 1 2 2 3 2 1 0 0 1 2 3 3 3 3 2 1 2 3 4 5 6 6 6 6 6 7 7 7 6 6 5 4 4 4 5 5 3 3 3 3 2 1 0 0 0 0
0 0 0 1 1 1 2 2 1 0 0 0 1 1 2 2 2 1 0 0 1 2 3 4 6 6 6 6 6 6 6 6 5 4 3 3 3 4 3 2 3 3 3 2 1 0 0 0 0
0 0 0 0 0 0 1 1 0 0 0 0 0 0 1 1 1 0 0 0 0 0 1 2 5 6 6 6 6 5 4 4 4 3 3 3 3 2 1 1 2 2 2 2 1 0 0 0 0
0 0 0 0 0 0 0 0 0 0 0 0 0 0 0 0 0 0 0 0 0 0 0 1 3 4 4 5 4 2 2 3 3 3 3 3 3 1 0 0 0 0 1 1 0 0 0 0 0
0 0 0 0 0 0 0 0 0 0 0 0 0 0 0 0 0 0 0 0 0 0 0 0 1 2 3 3 2 1 1 2 2 3 3 3 2 1 0 0 0 0 0 0 0 0 0 0 0
0 0 0 0 0 0 0 0 0 0 0 0 0 0 0 0 0 0 0 0 0 0 0 0 0 1 2 2 1 0 1 1 1 1 2 1 1 0 0 0 0 0 0 0 0 0 0 0 0
0 0 0 0 0 0 0 0 0 0 0 0 0 0 0 0 0 0 0 0 0 0 0 0 0 0 1 1 0 0 0 0 0 0 0 0 0 0 0 0 0 0 0 0 0 0 0 0 0
0 0 0 0 0 0 0 0 0 0 0 0 0 0 0 0 0 0 0 0 0 0 0 0 0 0 0 0 0 0 0 0 0 0 0 0 0 0 0 0 0 0 0 0 0 0 0 0 0
0 0 0 0 0 0 0 0 0 0 0 0 0 0 0 0 0 0 0 0 0 0 0 0 0 0 0 0 0 0 0 0 0 0 0 0 0 0 0 0 0 0 0 0 0 0 0 0 0
0 0 0 0 0 0 0 0 0 0 0 0 0 0 0 0 0 0 0 0 0 0 0 0 0 0 0 0 0 0 0 0 0 0 0 0 0 0 0 0 0 0 0 0 0 0 0 0 0
0 0 0 0 0 0 0 0 0 0 0 0 0 0 0 0 0 0 0 0 0 0 0 0 0 1 0 0 0 0 0 0 0 0 0 0 0 0 0 0 0 0 0 0 0 0 0 0 0
0 0 0 0 0 0 0 0 0 0 0 0 0 0 0 0 0 0 0 0 0 0 0 0 0 0 0 0 0 0 0 0 0 0 0 0 0 0 0 0 0 0 0 0 0 0 0 0 0
0 0 0 0 0 0 0 0 0 0 0 0 0 0 0 0 0 0 0 0 0 0 0 0 0 0 0 0 0 0 0 0 0 0 0 0 0 0 0 0 0 0 0 0 0 0 0 0 0
0 0 0 0 0 0 0 0 0 0 0 0 0 0 0 0 0 0 0 0 0 0 0 0 0 0 0 0 0 0 0 0 0 0 0 0 0 0 0 0 0 0 0 0 0 0 0 0 0
0 0 0 0 0 0 0 0 0 0 0 0 0 0 0 0 0 0 0 0 0 0 0 0 0 0 0 0 0 0 0 0 0 0 0 0 0 0 0 0 0 0 0 0 0 0 0 0 0
0 0 0 0 0 0 0 0 0 0 0 0 0 0 0 0 0 0 0 0 0 0 0 0 0 0 0 0 0 0 0 0 0 0 0 0 0 0 0 0 0 0 0 0 0 0 0 0 0
0 0 0 0 0 0 0 0 0 0 0 0 0 0 0 0 0 0 0 0 0 0 0 0 0 0 0 0 0 0 0 0 0 0 0 0 0 0 0 0 0 0 0 0 0 0 0 0 0
Wind_Speed
6 4 2 3 4 2 5 5 3 2 2 1 2 5 7 5 4 5 2 5 9 8 7 8 9 9 9 9 8 8 7 7 6 6 6 6 5 5 5 5 4 4 3 3 3 3 3 3 3
2 2 3 3 4 4 5 4 4 5 5 3 3 4 5 3 2 6 3 6 9 8 7 7 9 9 8 8 7 7 6 6 6 5 5 5 4 4 4 4 4 3 3 3 2 2 2 2 2
2 0 3 3 4 7 6 5 6 3 1 2 3 4 4 3 3 3 4 8 8 7 5 7 9 9 8 7 7 6 6 5 5 5 4 4 3 3 3 3 2 2 2 2 2 1 1 1 1
2 2 2 2 6 5 5 4 5 3 1 3 4 4 2 1 2 4 7 9 9 6 5 6 9 8 8 7 6 6 5 5 4 4 3 3 2 2 2 2 2 1 1 1 1 0 0 1 1
3 3 2 2 5 3 3 4 3 2 2 2 4 4 2 4 4 8 8 9 9 6 5 6 9 8 7 6 5 4 5 4 4 3 3 2 2 2 2 2 1 1 1 1 1 1 1 2 2
2 3 2 4 4 3 3 3 1 2 2 2 4 5 1 1 5 6 8 8 7 7 5 5 7 7 6 6 4 4 4 4 3 3 2 2 2 2 2 2 1 1 2 2 2 2 2 3 3
3 3 4 4 3 3 3 1 2 3 3 2 4 5 3 0 2 6 8 7 7 6 5 4 4 4 5 5 5 4 3 3 3 3 2 2 2 2 2 2 2 2 2 3 3 3 4 4 4
3 2 1 3 4 4 2 1 1 3 3 1 3 7 5 4 3 6 8 7 6 6 5 4 4 3 3 2 4 4 3 3 3 3 3 3 3 3 3 2 2 2 3 3 3 4 4 4 5
2 2 2 3 3 3 1 2 2 2 4 3 2 3 4 6 6 7 7 6 5 5 4 4 4 3 2 2 4 4 4 4 3 3 3 3 1 1 1 2 3 3 4 4 4 4 5 5 5
2 2 3 3 2 2 1 1 2 3 3 3 4 4 6 6 8 7 6 5 4 3 3 3 3 3 3 2 2 1 2 2 2 1 1 1 1 1 2 3 4 4 4 5 5 5 4 3 2
1 3 2 2 3 1 1 2 2 5 2 4 6 6 5 6 5 6 5 4 4 3 3 3 3 3 3 2 1 1 1 1 1 2 2 1 1 1 1 1 2 2 3 2 3 3 2 2 2
1 1 1 3 3 2 1 1 3 1 3 3 6 8 6 6 5 5 5 4 3 4 3 2 2 3 3 2 1 1 1 1 1 1 2 1 1 1 1 1 1 1 1 2 2 2 2 2 3
0 1 2 2 2 1 3 3 2 1 1 4 6 6 6 5 4 3 4 4 4 4 2 2 2 2 2 2 1 1 1 1 1 1 2 2 1 1 1 1 1 1 1 1 2 2 2 3 3
1 0 1 2 1 2 4 2 2 2 2 5 5 5 5 5 4 3 4 4 4 3 2 2 2 2 2 2 1 1 1 1 1 1 2 2 1 1 1 1 1 2 2 2 1 2 2 3 3
1 2 3 2 0 1 3 3 1 3 3 4 3 3 4 4 4 4 4 4 4 3 2 2 2 2 2 1 1 1 1 1 1 1 2 3 2 2 1 1 1 2 2 2 2 2 2 2 3
2 3 1 3 0 1 3 3 3 2 4 3 3 3 3 3 3 3 4 4 4 3 2 2 2 2 1 1 1 0 1 1 1 1 2 3 3 3 2 2 2 2 2 2 2 1 2 2 3
3 1 1 3 1 1 2 4 3 1 4 4 3 3 3 2 2 2 4 4 4 4 3 2 1 2 1 1 1 1 1 1 1 2 2 3 3 3 2 2 2 3 2 2 2 2 2 2 3
1 0 0 2 2 1 1 4 4 2 3 4 4 3 3 3 3 3 3 4 4 3 2 2 2 2 2 1 1 1 1 1 2 2 2 3 3 3 3 2 3 3 2 2 2 2 2 2 3
1 1 1 3 2 0 3 5 7 4 3 5 4 4 4 4 3 2 3 4 3 3 2 1 2 1 2 1 1 1 1 1 1 1 2 3 3 3 3 3 3 3 2 3 3 2 2 2 2
1 1 2 3 3 1 2 6 6 4 5 5 6 5 5 3 2 2 3 3 3 3 3 2 2 1 1 1 0 0 0 1 1 1 2 2 2 3 3 2 2 3 2 3 3 3 2 2 2
2 1 1 2 4 3 2 6 4 3 2 2 3 4 4 5 5 4 4 3 3 3 2 2 2 1 1 1 1 2 2 2 2 2 2 2 2 2 2 2 2 2 2 2 3 2 2 2 2
1 1 0 1 2 3 1 3 6 2 2 2 2 3 4 4 4 4 4 4 4 3 2 2 2 2 1 1 2 1 1 0 1 1 1 2 2 2 2 2 2 2 2 2 2 2 2 2 2
2 2 1 0 1 2 1 2 8 2 2 4 3 4 4 4 5 5 4 5 4 3 3 2 2 2 1 1 1 1 0 1 1 1 1 2 2 2 2 2 2 2 1 2 2 2 2 2 2
1 3 3 4 4 2 3 3 6 3 5 3 3 3 3 3 3 3 3 3 2 2 2 2 2 2 2 2 2 2 2 2 1 1 1 2 2 2 2 2 2 2 2 2 2 2 2 2 2
3 4 4 5 4 5 2 2 8 5 4 4 4 4 3 3 3 3 3 3 3 3 3 3 3 3 2 2 2 2 3 2 2 2 1 1 1 2 3 2 2 2 2 2 2 2 2 2 2
1 3 5 3 3 5 2 5 7 4 2 0 2 3 3 2 3 3 4 4 4 4 4 3 4 3 3 3 3 2 2 2 2 2 1 2 2 2 2 2 2 2 2 3 2 2 2 2 2
1 1 3 4 1 3 5 6 6 1 1 1 1 2 2 3 3 4 3 3 4 4 4 4 4 4 4 4 3 3 3 3 2 2 1 1 2 2 2 2 2 2 2 2 2 2 2 2 2
1 2 3 3 1 3 5 5 4 3 2 1 2 3 3 3 3 3 3 3 3 4 3 3 4 5 4 4 4 3 3 3 3 2 2 2 2 2 2 2 2 2 2 2 2 2 2 2 2
1 1 2 2 2 3 3 7 5 5 4 4 4 4 4 4 4 4 3 3 3 2 3 3 3 3 3 4 4 3 3 3 3 2 3 2 2 2 2 2 2 2 2 2 2 2 2 2 3
3 3 4 2 3 3 3 9 4 3 3 3 3 3 3 4 3 3 3 3 2 3 3 3 3 3 4 4 4 4 3 3 3 3 3 2 2 2 2 2 2 2 3 2 2 3 3 2 3
Wind_Direction
318 335 44 57 68 82 220 232 210 173 177 195 111 104 115 118 146 160 162 135 133 140 141 133 126 122 118 115 111 107 104 101 101 99 96 93 89 84 81 83 91 94 96 95 100 100 99 96 94
333 349 54 69 126 192 238 225 209 205 182 148 83 87 84 86 85 109 120 134 130 132 132 129 122 119 117 116 116 112 108 104 101 100 97 96 92 87 79 80 81 77 76 85 93 94 99 115 114
322 94 99 107 176 196 211 211 200 218 189 131 81 57 89 116 115 125 142 133 121 120 121 123 119 117 114 113 113 111 107 104 100 97 94 93 89 85 79 70 70 72 64 65 80 99 101 145 169
47 61 66 144 217 226 207 214 197 175 49 67 102 69 51 24 152 137 133 123 115 113 114 120 115 114 111 107 109 109 107 108 103 99 98 93 85 73 64 54 52 52 53 45 50 68 254 242 232
66 90 123 218 231 255 245 235 202 160 129 79 99 99 47 346 92 114 121 120 119 112 115 121 113 110 107 104 98 104 105 103 104 106 103 90 71 50 34 23 23 8 332 306 285 283 283 266 261
69 87 146 211 226 245 259 253 161 113 116 86 99 107 124 348 97 117 116 116 119 117 109 109 107 106 102 102 97 97 101 98 94 90 85 72 47 21 5 349 337 317 302 298 293 283 280 279 273
122 130 186 199 207 233 240 247 149 137 115 144 131 115 140 222 119 117 109 108 106 106 99 85 91 95 90 89 90 80 82 81 75 71 59 43 23 8 353 344 327 306 303 301 295 288 285 281 278
133 120 193 203 189 222 233 136 114 122 140 96 106 137 167 197 139 107 98 95 93 89 90 85 76 75 78 82 78 61 65 63 54 51 45 34 21 4 354 344 328 316 308 302 300 299 296 293 289
97 100 199 210 197 223 227 88 32 51 96 57 55 138 160 140 118 102 94 84 81 74 69 77 70 59 59 65 65 53 50 45 43 42 38 36 12 338 338 338 338 328 316 308 304 302 301 302 297
114 159 218 235 241 235 267 121 141 83 68 64 58 64 95 109 114 116 121 115 103 90 70 66 64 57 51 48 54 42 36 36 39 31 31 28 12 348 355 341 346 340 331 322 311 308 304 301 295
134 183 231 305 304 308 46 70 92 123 132 173 151 141 124 113 114 121 127 131 130 120 90 62 65 62 61 45 44 46 38 22 25 24 24 24 25 359 359 343 336 335 336 324 317 313 300 291 284
91 332 331 311 328 5 19 82 58 95 198 168 152 145 135 132 137 138 138 132 124 112 98 71 65 64 59 52 35 58 52 18 11 4 14 31 19 358 341 336 322 329 320 311 310 303 297 289 281
66 300 330 324 14 33 70 79 84 39 136 113 119 121 133 142 142 141 137 131 120 113 104 88 79 65 58 54 30 45 47 9 2 8 4 22 21 343 336 326 326 316 311 305 307 305 303 297 290
193 67 336 326 34 35 69 37 68 236 140 121 128 141 152 156 157 142 135 136 137 132 120 100 88 75 69 67 44 13 33 15 18 22 6 13 16 349 338 333 324 312 302 295 289 297 297 290 288
98 51 348 324 84 341 70 11 225 213 135 135 153 160 161 168 157 158 161 156 156 147 134 116 116 91 75 60 31 11 10 47 39 16 16 15 15 10 1 346 335 320 319 322 319 316 311 309 307
48 63 354 313 70 0 100 248 249 192 147 167 178 173 171 187 181 175 163 151 148 139 130 106 93 82 76 54 6 11 30 61 44 22 23 18 12 9 10 3 340 332 339 341 333 332 330 321 314
30 64 291 318 343 61 129 245 262 199 161 184 192 183 187 191 196 186 166 153 145 141 132 117 100 85 53 37 30 51 51 59 44 33 28 17 12 9 11 1 344 343 351 348 341 346 333 319 317
227 188 316 286 300 94 202 251 270 247 191 204 204 194 198 198 212 186 160 140 131 127 123 118 94 68 51 38 49 43 48 47 37 34 21 18 16 11 12 3 356 356 0 353 348 336 337 319 313
197 127 308 279 288 285 239 261 270 259 217 212 212 206 205 212 212 165 144 132 123 124 129 125 89 53 60 39 38 35 360 31 34 21 21 21 21 12 15 6 359 358 360 345 339 333 335 334 334
70 65 347 326 348 340 274 279 271 245 223 211 200 201 202 203 189 167 149 145 146 149 156 148 117 75 63 62 32 154 318 353 357 2 11 14 21 11 12 16 2 351 355 351 343 341 333 332 353
26 128 262 302 341 1 342 307 288 281 254 227 204 192 190 188 186 179 170 172 164 170 178 170 144 124 77 55 57 41 35 13 5 1 355 355 7 9 3 8 6 349 354 341 332 326 324 315 321
317 287 253 310 30 307 57 293 290 272 300 262 216 197 196 190 178 173 171 180 187 194 185 180 160 138 103 81 91 93 87 273 279 290 308 339 1 360 355 2 5 349 348 336 323 330 313 294 299
234 283 313 344 96 341 321 205 286 313 270 255 232 213 205 193 182 178 179 187 189 188 185 186 172 146 146 140 146 150 232 258 282 304 335 342 348 352 350 351 351 343 335 326 321 323 319 302 282
296 30 30 44 64 320 246 177 282 256 237 245 228 213 204 197 191 186 180 170 180 182 185 190 184 188 188 178 176 183 216 236 275 311 323 326 329 333 337 338 339 332 328 328 323 317 314 307 300
53 73 32 4 5 261 263 197 254 263 251 215 201 202 201 181 179 184 189 192 199 202 209 206 200 208 203 191 191 202 215 214 221 250 264 283 303 309 313 323 327 326 318 318 320 320 317 311 301
296 129 147 194 240 284 312 238 256 286 305 182 161 169 170 179 190 200 209 210 208 208 210 211 210 219 211 204 213 211 209 208 226 238 241 252 266 277 288 301 312 316 318 320 320 317 312 312 305
135 152 169 137 204 276 279 283 297 270 18 65 118 144 191 215 216 216 219 217 218 217 215 212 215 222 221 216 211 210 208 208 222 233 234 251 267 286 295 302 308 314 315 310 311 310 306 308 305
139 144 94 122 175 273 290 275 251 252 244 227 211 219 234 240 240 233 228 227 225 223 225 223 221 221 226 223 218 214 213 214 216 213 225 244 261 277 294 300 301 305 309 310 310 307 304 311 307
171 168 134 132 166 179 271 273 230 221 212 209 223 229 229 228 234 235 240 239 232 233 227 228 232 234 235 229 222 218 216 212 211 215 226 233 250 263 271 281 290 294 301 301 304 300 308 312 312
197 192 151 159 241 197 219 269 274 230 212 199 223 241 246 238 237 235 235 242 244 243 242 239 240 239 239 230 218 218 215 209 213 225 229 225 238 252 259 272 285 289 294 295 293 295 305 300 302